Regional Weather Roundup
Issued by NWS Pendleton, OR

Home | Current Version | Previous Version | Text Only | Print | Product List | Glossary On
Versions: 1 2 3 4 5 6 7 8 9 10 11 12 13 14 15 16 17 18 19 20 21 22 23 24 25 26 27 28 29 30 31 32 33 34 35 36 37 38 39 40 41 42 43 44 45 46 47 48 49 50
013
ASUS46 KPDT 041225
RWRPDT
PENDLETON REGIONAL WEATHER ROUNDUP
NATIONAL WEATHER SERVICE PENDLETON OREGON
400 AM PST SUN DEC 4 2016

NOTE: FAIR INDICATES FEW OR NO CLOUDS BELOW 12,000 FEET WITH NO
SIGNIFICANT WEATHER AND/OR OBSTRUCTIONS TO VISIBILITY.

# INDICATES UNOFFICIAL STATION AND DATA

WAZ520-041310-
EAST SLOPES OF WASHINGTON CASCADES

CITY            SKY/WX      TMP DP  RH  WIND    PRES   REMARKS
#CLE ELUM HS    N/A         34  32  92  CALM    29.85F
#CLE ELUM LAKE  N/A         32  31  96  CALM    29.88F
#GLENWOOD       N/A         37  35  92  S3      29.97F
#MANASTASH CYN  N/A         33  30  89  CALM    29.83F
#NELSON 3SW     N/A         32  31  96  CALM    30.10F
#NILE           N/A         35  34  96  CALM    29.17F
#RONALD 2NW     N/A         30  N/A N/A CALM    29.82F
#TEANAWAY 4NE   N/A         33  33  100 CALM    N/A
#TROUT LAKE 1NE N/A         35  34  96  CALM    30.00F
#TROUT LAKE 1E  N/A         36  35  96  CALM    29.94F
$$

WAZ521-041310-
SIMCOE HIGHLANDS

CITY            SKY/WX      TMP DP  RH  WIND    PRES   REMARKS
#CENTERVILLE 1SWN/A         39  36  89  W10     29.96F
#GOLDENDALE 1NE N/A         40  33  76  SW3     N/A
#GOLDENDALE 4W  N/A         39  28  64  W6      29.98F
#GOODNOE HILLS  N/A         44  35  70  SW31    29.83F WCI 34
#LYLE 6NE       N/A         39  38  96  SW8     29.96F
$$

WAZ026-041310-
KITTITAS VALLEY

CITY            SKY/WX      TMP DP  RH  WIND    PRES   REMARKS
ELLENSBURG AP   LGT RAIN    37  33  85  NW12    29.87F WCI 29
#ELLENSBURG CWU N/A         36  34  92  N7      29.85F
#ELLENSBURG 3NE N/A         35  33  92  N6      29.89F
#ELLENSBURG 1E  N/A         36  N/A N/A CALM    N/A
#KITTITAS 4N    N/A         36  32  85  NW10    29.91F
#KITTITAS 3S    N/A         35  33  92  CALM    29.92F
#THORP 6N       N/A         32  31  96  NW5     29.93F
$$

WAZ027-041310-
YAKIMA VALLEY

CITY            SKY/WX      TMP DP  RH  WIND    PRES   REMARKS
SUNNYSIDE AP    N/A         44  33  65  SW8     29.91F
YAKIMA AIRPORT  CLOUDY      33  29  85  CALM    29.89F
6HR MIN TEMP:   33; 6HR MAX TEMP:   39;

YAKIMA-VAGABOND MOCLEAR     38  31  76  E5      29.86F
6HR MIN TEMP:   35; 6HR MAX TEMP:   41;

#GRANDVIEW      N/A         44  33  65  SW2     29.94F
#MABTON         N/A         48  37  65  SW15G24 29.91F WCI 42
#NACHES 2SW     N/A         39  35  85  CALM    29.87F
#TERRACE HTS    N/A         38  33  82  CALM    29.89F
#TOPPENISH      N/A         46  35  65  CALM    29.85F
#WEST VALLEY    N/A         34  30  85  CALM    29.91F
#W YAKIMA       N/A         39  33  79  CALM    29.92F
#WHITE SWAN 5E  N/A         44  36  73  W9G24   29.91F
#WILEY CITY 3W  N/A         33  27  78  CALM    29.85F
$$

WAZ028-041310-
LOWER COLUMBIA BASIN...WASHINGTON

CITY            SKY/WX      TMP DP  RH  WIND    PRES   REMARKS
PASCO           CLOUDY      48  36  63  SW29G38 29.93F WCI 39
6HR MIN TEMP:   47; 6HR MAX TEMP:   49;

PROSSER AWOS    N/A         46  36  68  SW14    29.94F WCI 40
RICHLAND AWOS   CLOUDY      48  37  65  S16G31  29.94F WCI 42
#BENTON CITY    N/A         45  37  73  SW3     29.84F
#CONNELL 5N     N/A         42  37  82  SW13    29.89F WCI 35
#CONNELL 5NW    N/A         42  37  82  S15     29.85F WCI 34
#ELTOPIA 6NW    N/A         44  37  76  SW15G32 28.86F WCI 37
#KAHLOTUS       N/A         43  35  73  W28G36  29.89F WCI 33
#KENNEWICK 3S   N/A         44  36  73  N8      29.95F
#PATERSON       N/A         45  38  76  W5      29.95F
#SAGEMOOR 2W    N/A         45  37  73  SW16G26 29.77F WCI 38
#TOUCHET 2S     N/A         48  34  58  SW2     29.92F
#WEST PASCO     N/A         48  37  65  SW12    29.96F WCI 43
$$

WAZ029-041310-
FOOTHILLS OF THE BLUES...WASHINGTON

CITY            SKY/WX      TMP DP  RH  WIND    PRES   REMARKS
WALLA WALLA AP  LGT RAIN    45  34  65  S16G25  29.95F WCI 38
6HR MIN TEMP:   44; 6HR MAX TEMP:   46; 6HR PCP:  TRACE;

#CLYDE 6NW      N/A         44  35  70  SW14G25 29.93F WCI 37
#DAYTON SCHOOL  N/A         41  31  67  S6      29.94F
#LOWDEN 2SE     N/A         48  35  60  SE2     29.93F
#PLEASANT VIEW 1N/A         41  34  76  S18G29  29.96F WCI 32
#PRESCOTT       N/A         45  36  70  SW1     29.93F
#WHITMAN COLLEGEN/A         46  36  68  SE8     30.01F
#WAITSBURG 5S   N/A         41  35  79  S14     30.04F WCI 33
#WAITSBURG 8N   N/A         41  N/A N/A S15     29.96S WCI 33
#WALLA WALLA U  N/A         49  36  61  CALM    29.98F
#WHITMAN MISSIONN/A         49  36  61  S5      29.98F
$$

WAZ030-041310-
BLUE MOUNTAINS...WASHINGTON

CITY            SKY/WX      TMP DP  RH  WIND    PRES   REMARKS
#DIXIE 5SE      N/A         35  32  89  S15     29.82F WCI 25
#SKI BLUEWOOD   N/A         30  28  92  SE5     29.86F
$$

ORZ009-041-WAZ024-041310-
COLUMBIA RIVER GORGE

CITY            SKY/WX      TMP DP  RH  WIND    PRES   REMARKS
HOOD RIVER AP   RAIN        43  41  93  CALM    30.00F
THE DALLES AP   CLOUDY      47  39  74  NW15    30.00F WCI 41
6HR MIN TEMP:   46; 6HR MAX TEMP:   51; 6HR PCP:  TRACE;

#ARLINGTON AIRPON/A         44  37  76  N13     29.97F WCI 38
#ARLINGTON HS   N/A         47  36  65  CALM    29.89F
#CELILO DOT     N/A         48  35  60  SW8     N/A
#LYLE           N/A         46  43  89  CALM    30.01F
#MOSIER 1S      N/A         42  34  73  CALM    N/A
#MURDOCK        N/A         45  41  86  NW7     29.96F
#RUFUS DOT      N/A         49  39  68  NW17    N/A    WCI 43
#SMITHVILLE     N/A         46  42  86  N7      29.95F

$$

ORZ510-041310-
NORTH CENTRAL OREGON

CITY            SKY/WX      TMP DP  RH  WIND    PRES   REMARKS
#ANTELOPE       N/A         39  31  73  W7      29.92F
#CHENOWITH 1W   N/A         39  37  92  W18     N/A    WCI 30
#COW CYN RST AREN/A         38  N/A N/A S10     N/A
#DUFUR 9E       N/A         41  34  76  SW21    30.04F WCI 32
#GRASS VALLEY 1SN/A         40  34  79  SW15    29.91F WCI 32
#KENT DOT       N/A         40  26  57  N16     N/A    WCI 32
#MAUPIN SCHOOL  N/A         47  38  71  CALM    30.03F
#MORO SCHOOL    N/A         41  37  86  W10     29.96F
#SHANIKO 5WSW   N/A         36  25  64  N14     N/A    WCI 27
#SHANIKO 4NW    N/A         36  30  79  SW5     29.96F
#WAPANITIA AIRPON/A         42  35  76  SW8     30.04F
#WASCO DOT      N/A         42  36  79  W8      N/A
#WASCO 5NE      N/A         40  36  85  W8      29.98F
$$

ORZ511-041310-
CENTRAL OREGON

CITY            SKY/WX      TMP DP  RH  WIND    PRES   REMARKS
BEND AIRPORT    MOCLDY      43  32  65  VRB7    30.01S
MADRAS AIRPORT  CLOUDY      41  30  65  S14     30.03F WCI 33
PRINEVILLE AP   CLOUDY      34  28  78  CALM    30.03S
REDMOND AIRPORT CLOUDY      35  26  69  N7      30.02F
6HR MIN TEMP:   30; 6HR MAX TEMP:   35;

#ASHWOOD SCHOOL N/A         43  32  65  S7      29.96F
#BEND 1SW       N/A         40  35  82  SW3     N/A
#BEND-AWBREY    N/A         38  32  79  CALM    30.07R
#BEND-KIM LN    N/A         36  31  82  SE1     29.93F
#CULVER         N/A         41  32  70  S13G25  29.98F WCI 34
#CULVER 8W      N/A         40  32  73  SW5     30.01F
#LAKE BILLY CHINN/A         41  N/A N/A S12     30.10F WCI 34
#MADRAS 4S      N/A         N/A N/A N/A N7      30.08F
#POWELL BUTTE 3EN/A         34  26  72  E3      N/A
#POWELL BUTTE   N/A         39  31  73  CALM    29.98R
#PRINEVILLE 3N  N/A         32  29  89  S3      30.08F

$$


ORZ509-041310-
EAST SLOPES OF OREGON CASCADES

CITY            SKY/WX      TMP DP  RH  WIND    PRES   REMARKS
SISTERS AWOS    N/A         37  34  89  W10     29.98R
#BLUE BOX PASS  N/A         32  N/A N/A S10     N/A
#CAMP SHERMAN   N/A         36  32  85  N2      30.13F
#LA PINE DOT    N/A         37  31  79  S10     N/A
#LA PINE 4NW    N/A         29  26  88  CALM    30.15F
#LAVA BUTTE DOT N/A         37  29  72  SE3     N/A
#SISTERS AIRPOR N/A         37  37  100 N6      30.17S
#SISTERS ODOT   N/A         34  N/A N/A CALM    N/A
#SISTERS 3N     N/A         37  30  75  CALM    30.03S
#SUNRIVER       N/A         37  33  85  S3      30.08F
#SUTTLE LK DOT  N/A         29  29  100 N2      N/A
#TUMALO 3W      N/A         35  29  78  NE3     29.94S
#WANOGA BUTTE D N/A         33  33  100 W16     N/A    WCI 23

$$

ORZ044-041310-
LOWER COLUMBIA BASIN...OREGON

CITY            SKY/WX      TMP DP  RH  WIND    PRES   REMARKS
HERMISTON       CLOUDY      45  32  60  SW9     29.96F
6HR MIN TEMP:   44; 6HR MAX TEMP:   48;

#BOARDMAN SCHOOLN/A         47  37  68  S12     29.97F WCI 42
#I-84 EX 198 DOTN/A         45  33  63  N8      N/A
#UMATILLA       N/A         45  33  63  CALM    29.91F
$$

ORZ507-041310-
NORTHERN FOOTHILLS OF THE BLUES

CITY            SKY/WX      TMP DP  RH  WIND    PRES   REMARKS
PENDLETON AIRPT CLOUDY      42  30  62  S8      29.96F
6HR MIN TEMP:   41; 6HR MAX TEMP:   45;

#ADAMS 3WNW     N/A         40  35  82  CALM    29.98F
#ATHENA         N/A         42  36  79  S3      30.00F
#CAYUSE         N/A         43  36  76  E5      29.98F
#HELIX SCHOOL   N/A         41  35  79  N8      29.99F
#HELIX 3N       N/A         41  34  76  SW13    29.92F WCI 34
#HOLDMAN 5SE    N/A         44  33  65  SW3     29.95F
#HOLDMAN 6E     N/A         41  35  79  SE3     29.78F
#M-F GROVE ELEM N/A         45  33  63  E5      29.93F
#M-FREEWATER 5SEN/A         43  35  73  E7      29.96F
#PENDLETON DNTN N/A         43  28  55  CALM    29.98F
#PDT AQUATIC CTRN/A         42  29  60  CALM    29.98F
#PDT SUNRIDGE   N/A         42  34  73  S2      29.98F
#PENDLETON 7NW  N/A         44  33  65  CALM    31.33S
#PILOT ROCK 1S  N/A         43  32  65  S1      29.97F
#PILOT ROCK     N/A         42  34  73  W5      29.97F
#TUTUILLA       N/A         42  36  79  CALM    29.98F
#UMAPINE 2E     N/A         48  37  65  SE5     29.94F
#WESTON SCHOOL  N/A         40  32  73  SW12    29.85F WCI 33

$$

ORZ508-041310-
SOUTHERN FOOTHILLS OF THE BLUES

CITY            SKY/WX      TMP DP  RH  WIND    PRES   REMARKS
LEXINGTON       MOCLDY      46  32  58  S12     29.99F WCI 40
#AJAX           N/A         42  26  53  S14     27.71F WCI 35
#CONDON SCHOOL  N/A         39  32  76  SW7     29.91F
#CONDON 5W      N/A         36  28  72  SW14    29.91F WCI 27
#HEPPNER EOC    N/A         44  33  65  S7      29.93F
#HEPPNER 4NE    N/A         42  33  70  S3      30.00F
#LEXINGTON 2SE  N/A         48  32  54  CALM    29.92F
#MIKKALO        N/A         45  31  58  W13G26  30.05F WCI 39
#OLEX 4N        N/A         39  34  82  W8      29.96F
#RUGGS 5NE      N/A         40  32  73  S9      30.07F
#RUGGS 2SW      N/A         42  31  65  SW5     30.02F

$$

ORZ502-503-041310-
BLUE MOUNTAINS

CITY            SKY/WX      TMP DP  RH  WIND    PRES   REMARKS
MEACHAM         LGT SNOW    33  30  89  CALM    29.94F VSB 3/4
#BATTLE MTN DOT N/A         31  27  85  S7      N/A
#GREENHORN 9SW  N/A         30  30  100 CALM    26.20F
#LADD CYN SMT   N/A         33  32  96  SE10    N/A
#LADD CREEK ODOTN/A         33  21  61  SW1     N/A
#LONG CREEK HS  N/A         35  34  96  CALM    29.97F
#N POWDER DOT   N/A         31  31  100 S2      N/A
#PIKES PEAK     N/A         33  30  89  S25     27.99S WCI 20
#TOLLGATE       N/A         28  27  96  CALM    29.77F
#TROY SCHOOL    N/A         38  36  92  CALM    29.87F
#UKIAH          N/A         34  32  92  SW1     29.98F
#WESTON 4E      N/A         33  31  92  SE7     29.97F
$$

ORZ505-041310-
JOHN DAY BASIN

CITY            SKY/WX      TMP DP  RH  WIND    PRES   REMARKS
JOHN DAY        CLOUDY      43  28  55  S13     29.98F WCI 36
#ANTELOPE 9ESE  N/A         36  30  79  E2      N/A
#DAYVILLE SCHOOLN/A         44  26  49  S7      29.98F
#MITCHELL       N/A         40  32  73  CALM    30.16S
#MITCHELL 8NW   N/A         41  30  65  SW1     30.24F
#MONUMENT HS    N/A         37  32  82  CALM    29.98F
#MT. VERNON 5SE N/A         39  27  62  E1      29.95F
#SPRAY SCHOOL   N/A         36  N/A N/A CALM    N/A
$$

ORZ506-041310-
OCHOCO AND JOHN DAY HIGHLANDS

CITY            SKY/WX      TMP DP  RH  WIND    PRES   REMARKS
#BUCK CREEK DOT N/A         40  29  64  S7      N/A
#HORSE RIDGE DO N/A         41  32  70  S8      N/A
#KEYES SMT DOT  N/A         38  28  67  S25     N/A    WCI 27
#PAULINA SCHOOL N/A         28  25  88  CALM    N/A
#PINE MTN OBS   N/A         30  28  92  SE12G24 N/A    WCI 20
#PRAIRIE CITY   N/A         32  28  85  CALM    30.17F
#SENECA         N/A         27  N/A N/A CALM    N/A
#SENECA 9NW     N/A         27  25  92  CALM    30.12F
$$

ORZ049-041310-
GRANDE RONDE VALLEY

CITY            SKY/WX      TMP DP  RH  WIND    PRES   REMARKS
LA GRANDE       CLOUDY      34  27  75  S7      29.98F
#COVE           N/A         34  33  96  CALM    30.01F
#COVE SCHOOL    N/A         34  32  92  CALM    30.00F
#COVE 6NW       N/A         33  31  92  CALM    30.06F
#ELGIN 3N       N/A         33  29  85  S5      29.93F
#ELGIN 1E       N/A         34  29  82  CALM    N/A
#IMBLER SCHOOL  N/A         32  31  96  S8      29.94F
#ISLAND CITY 4N N/A         45  44  96  CALM    30.08F
#LADD CYN DOT   N/A         35  33  92  S6      N/A
#UNION 1S       N/A         35  32  89  SE3     30.06F
$$

ORZ050-041310-
WALLOWA COUNTY

CITY            SKY/WX      TMP DP  RH  WIND    PRES   REMARKS
JOSEPH AIRPORT  LGT SNOW    30  28  92  CALM    29.94F
#IMNAHA SCHOOL  N/A         40  35  82  N3      29.99F
#JOSEPH 3N      N/A         30  24  78  CALM    29.97F
#JOSEPH 3W      N/A         N/A N/A N/A SW3     29.76F
#LOSTINE        N/A         32  30  92  CALM    29.82F
#LOSTINE 3SE    N/A         32  30  92  S1      29.95F
#MT HOWARD 8000 N/A         24  21  88  SW12    29.79F WCI 13
#PROMISE 1S     N/A         32  30  92  E5      30.12F
#WALLOWA SCHOOL N/A         33  31  92  CALM    29.94F



$$



USA.gov is the U.S. government's official web portal to all federal, state and local government web resources and services.